www.pogodaiklimat.ru

Погода и климат >> Архив погоды >> Пакистан >> Дир


ПОГОДА в Дире

  • Прогноз погоды в Дире
  • Монитор погоды в Дире

АРХИВ ПОГОДЫ в Дире

Время (UTC), дата Ветер
(напр.,м/с)
 
Видим.   Явления Облачность Т
(С)
Тd
(С)
f
(%)
Тe
(С)
Тes
(С)
Комфортность P
(гПа)
Po
(гПа)
Тmin
(С)
Tmax
(С)
R
(мм)
R24
(мм)
S
(см)
03 13.08 штиль 0 10 км 8/5 1050 м
[Sc diur, vesp As op]
+25.0 +22.1 84 +32 +34 очень
душно
723.5 +21.0
06 13.08 штиль 0 10 км 5/5 1050 м
[Sc diur, vesp]
+28.3 +22.1 69 +37 +49 очень
душно
724.1
09 13.08 штиль 0 10 км 5/5 1050 м
[Cu med, cong]
+31.7 +20.7 52 +39 +49 очень
душно
724.8
12 13.08 ЮЗ 1 4000 м 8/4 1050 м
[Cu med, cong As op]
+28.3 +22.9 73 +38 +39 очень
душно
1000.0 +32.5
15 13.08 штиль 0 4000 м гроза, ливневой дождь 9/6 600 м
[Cb cap As op]
+27.2 +22.0 73 +35 +35 очень
душно
1000.0 9
18 13.08 штиль 0 4000 м в посл. час гроза {дождь} 8/4 900 м
[Sc diur, vesp As op]
+23.9 +21.8 88 +31 +31 очень
душно
723.1 21
21 13.08 штиль 0 4000 м 8/4 900 м
[Sc diur, vesp As op]
+22.2 +21.3 95 +29 +29 очень
душно
1000.0
00 14.08 штиль 0 4000 м 4/4 900 м
[Sc diur, vesp]
+21.7 +20.8 95 +28 +28 душно 1000.0
03 14.08 штиль 0 10 км 8/4 1050 м
[Sc diur, vesp As op]
+21.1 +19.5 91 +26 +28 душно 722.5 +20.5
06 14.08 штиль 0 10 км 8/5 1050 м
[Sc diur, vesp As op]
+24.4 +20.9 81 +31 +38 очень
душно
1000.0
09 14.08 штиль 0 10 км в посл. час дождь 8/4 1050 м
[Sc diur, vesp As op]
+26.7 +20.7 70 +33 +39 очень
душно
1000.0 2
12 14.08 ЮЗ 2 10 км 8/4 1050 м
[Cu med, cong As op]
+29.4 +20.9 60 +37 +38 очень
душно
725.4 +30.0
15 14.08 штиль 0 4000 м 5/5 300 м
[Sc diur, vesp]
+24.4 +21.6 84 +31 +31 очень
душно
1000.0
18 14.08 штиль 0 4000 м 5/5 900 м
[Sc diur, vesp]
+23.3 +21.3 89 +31 +31 очень
душно
1000.0
21 14.08 штиль 0 4000 м 5/5 900 м
[Sc diur, vesp]
+22.2 +20.5 90 +29 +29 очень
душно
722.8
00 15.08 штиль 0 4000 м 4/4 900 м
[Sc diur, vesp]
+21.7 +20.8 95 +28 +28 душно 1000.0
03 15.08 штиль 0 10 км 4/4 1050 м
[Cu med, cong]
+22.2 +19.8 86 +28 +32 душно 1000.0 +20.1
06 15.08 Ю 1 10 км 4/4 1050 м
[Cu med, cong]
+28.9 +20.3 60 +36 +48 очень
душно
737.8
09 15.08 Ю 1 10 км 4/4 1050 м
[Cu med, cong]
+31.8 +20.5 51 +39 +50 очень
душно
727.8
12 15.08 ЮЗ 1 10 км 5/5 1050 м
[Cu med, cong]
+31.9 +18.7 46 +37 +39 очень
душно
1000.0 +33.1
15 15.08 З 1 4000 м 4/4 1050 м
[Sc diur, vesp]
+25.8 +20.1 71 +32 +32 очень
душно
1000.0
18 15.08 штиль 0 4000 м 4/4 300 м
[Sc diur, vesp]
+23.9 +21.1 84 +30 +30 очень
душно
1000.0
21 15.08 штиль 0 4000 м 4/4 1050 м
[Sc diur, vesp]
+22.8 +20.8 88 +30 +30 очень
душно
1000.0
00 16.08 штиль 0 4000 м 4/4 1050 м
[Sc diur, vesp]
+21.7 +20.5 93 +27 +27 душно 722.9
03 16.08 штиль 0 10 км 6/3 1050 м
[Sc diur, vesp As op]
+23.2 +20.0 82 +30 +33 очень
душно
1000.0 +21.5
06 16.08 штиль 0 10 км 8/3 300 м
[Sc diur, vesp As op]
+26.9 +21.2 71 +34 +41 очень
душно
1000.0
09 16.08 З 1 10 км гроза, ливневой дождь 9/6 600 м
[Cb cap As op]
+29.3 +20.3 58 +36 +40 очень
душно
1000.0
12 16.08 З 1 10 км в посл. час гроза 5/5 1050 м
[Cu med, cong]
+29.7 +18.0 49 +34 +36 очень
душно
1000.0 +30.5 2
15 16.08 ЮЗ 1 4000 м 5/3 1050 м
[Sc diur, vesp As op]
+24.1 +17.0 65 +28 +28 душно 1000.0
18 16.08 ЮЗ 1 2000 м гроза, ливневой дождь 10/6 600 м
[Cb cap As op]
+18.1 +16.4 90 +20 +20 1000.0 5
21 16.08 штиль 0 2000 м гроза, ливневой дождь 10/6 600 м
[Cb cap As op]
+16.7 +15.4 92 +17 +17 1000.0 6
00 17.08 штиль 0 4000 м в посл. час гроза 10/5 1050 м
[Sc diur, vesp As op]
+15.6 +14.3 92 +15 +15 1000.0 1
03 17.08 штиль 0 10 км в посл. час гроза 4/4 1050 м
[Cu med, cong]
+17.5 +15.1 86 +17 +22 1000.0 +15.1 2
06 17.08 З 1 10 км 3/3 1050 м
[Cu med, cong]
+24.4 +15.3 57 +27 +43 жарко 1000.0
09 17.08 З 1 10 км 3/3 1050 м
[Cu med, cong]
+28.8 +16.8 48 +32 +46 душно 1000.0
12 17.08 З 1 10 км 3/3 1050 м
[Cu med, cong]
+29.4 +14.9 41 +32 +34 душно 1000.0 +30.1
15 17.08 З 1 4000 м 3/3 300 м
[Sc diur, vesp]
+22.8 +16.8 69 +28 +28 душно 1000.0
18 17.08 штиль 0 4000 м 3/3 1050 м
[Sc diur, vesp]
+21.7 +17.4 77 +26 +26 душно 1000.0
21 17.08 штиль 0 4000 м 4/4 1050 м
[Sc diur, vesp]
+20.0 +16.9 82 +22 +22 комфорт 722.0
00 18.08 штиль 0 4000 м 4/4 1050 м
[Sc diur, vesp]
+18.9 +17.4 91 +20 +20 1000.0
03 18.08 штиль 0 10 км 3/3 300 м
[Cu med, cong]
+19.6 +16.9 84 +22 +27 комфорт 722.2 +17.0
06 18.08 З 1 10 км 3/3 300 м
[Cu med, cong]
+27.2 +16.1 51 +31 +46 душно 1000.0
09 18.08 З 1 10 км 4/4 1050 м
[Cu med, cong]
+29.4 +16.8 47 +33 +45 душно 1000.0
12 18.08 З 1 10 км 4/4 1050 м
[Cu med, cong]
+28.2 +17.4 52 +32 +34 душно 724.6 +30.5
15 18.08 З 1 2000 м гроза без осадков 10/6 600 м
[Cb cap As op]
+23.9 +7.8 36 +24 +24 комфорт 1000.0
18 18.08 штиль 0 2000 м гроза без осадков 10/6 600 м
[Cb cap As op]
+21.4 +10.6 50 +23 +23 комфорт 1000.0
21 18.08 штиль 0 2000 м гроза без осадков 10/6 600 м
[Cb cap As op]
+18.0 +12.9 72 +18 +18 1000.0
00 19.08 штиль 0 4000 м в посл. час гроза 10/5 1050 м
[Sc diur, vesp As op]
+16.7 +13.6 82 +17 +17 1000.0
03 19.08 штиль 0 10 км ясно +17.8 +11.0 64 +18 +25 723.7 +13.5
06 19.08 ЮВ 1 10 км 3/3 1050 м
[Cu med, cong]
+26.3 +10.7 38 +27 +42 жарко 1000.0
09 19.08 З 1 10 км 3/3 1050 м
[Cu med, cong]
+29.7 +14.2 39 +32 +45 душно 1000.0
12 19.08 Ю 1 10 км 6/4 1050 м
[Cu med, cong As op]
+27.2 +15.2 48 +30 +32 душно 1000.0 +30.5
15 19.08 З 2 2000 м гроза, ливневой дождь 10/6 600 м
[Cb cap As op]
+18.6 +14.0 75 +20 +20 725.7 1
18 19.08 З 1 2000 м в посл. час гроза 10/5 1050 м
[Sc diur, vesp As op]
+17.8 +14.7 82 +19 +19 1000.0
21 19.08 З 1 2000 м в посл. час гроза 10/5 1050 м
[Sc diur, vesp As op]
+17.8 +14.7 82 +19 +19 1000.0

 

Местоположение метеостанции Дир (Пакистан): широта 35.20 долгота 71.85 высота над уровнем моря 1370 м.

В архиве по умолчанию представлена погода в Дире за последнюю неделю. Архивные данные за месяц целиком и за предыдущие месяцы, начиная с января 2011 года, Вы можете получить, выбрав интересующий диапазон дат из раскрывающегося списка и нажав кнопку "Ввод!".


*Определитесь, кто Вы:
робот инопланетянин человек

Внимание! Время в таблицах - всемирное. Для получения местного времени необходимо прибавить поправку, которая равна 5 ч.

Смотрите также архив погоды в соседних городах и на ближайших метеорологических станциях:

Погода в Мир Хани (Пакистан) (36 км)
Погода в Тимергаре (Пакистан) (41 км)
Погода в Дроше (Пакистан) (42 км)
Погода в Сайду-Шарифе (Пакистан) (69 км)
Погода в Читрале (Пакистан) (72 км)
Погода в Паттане (Пакистан) (105 км)
Погода в Малам Джабба (Пакистан) (108 км)
Погода в Каламе (Пакистан) (124 км)
Погода в Рисалпуре (Пакистан) (125 км)
Погода в Пешаваре (Пакистан) (134 км)

Пояснения к столбцам:

Ветер - указаны скорость ветра в м/с - средняя за 10 мин, порывы в срок и между сроками (в фигурных скобках) и направление, откуда дует ветер: С - северный, СВ - северо-восточный, В - восточный, ЮВ - юго-восточный, Ю - южный, ЮЗ - юго-западный, З - западный, СЗ - северо-западный.
Видимость - горизонтальная дальность видимости в метрах или километрах. При видимости от 1 до 10 км при отсутствии осадков обычно наблюдается дымка, при ухудшении видимости до 1 км и менее - туман. В сухую погоду видимость может ухудшаться дымом, пылью или мглою.
Явления - указаны атмосферные явления, наблюдавшиеся в срок или в последний час перед сроком; фигурными скобками обозначены явления, наблюдавшиеся между сроками (за 1-3 часа до срока); квадратными скобками обозначены град или гололедные отложения с указанием их диаметра в мм.
Облачность - указаны через наклонную черту общая и нижняя облачность в баллах и высота нижней границы облаков в метрах; квадратными скобками обозначены формы облаков: Ci - перистые, Cs - перисто-слоистые, Cc - перисто-кучевые, Ac - высококучевые, As - высокослоистые, Sc - слоисто-кучевые, Ns - слоисто-дождевые, Cu - кучевые, Cb - кучево-дождевые. Подробнее классификацию облаков см. в Атласе облаков (PDF).
T - Температура воздуха - температура, измеренная на высоте 2 м над землей.
Td - Температура точки росы - температура, при понижении до которой содержащийся в воздухе водяной пар достигнет насыщения.
f - Относительная влажность воздуха - влажноcть воздуха, измеренная на высоте 2 м над землей.
Te - Эффективная температура - температура, которую ощущает одетый по сезону человек в тени. Характеристика душности погоды. При расчете учитывается влияние влажности воздуха и скорости ветра на теплоощущения человека.
Tes - Эффективная температура на солнце - температура, которую ощущает человек, с поправкой на солнечный нагрев. Характеристика знойности погоды. Зависит от высоты солнца над горизонтом, облачности и скорости ветра. Ночью, в пасмурную погоду, а также при ветре 12 м/с и более поправка равна нулю.
P - Атмосферное давление - приведенное к уровню моря атмосферное давление.
Po - Атмосферное давление - измеренное на уровне метеостанции атмосферное давление.
Tmin - Минимальная температура - минимум температуры воздуха на высоте 2 м над землей.
Tmax - Максимальная температура - максимум температуры воздуха на высоте 2 м над землей.
R - Количество осадков - Количество выпавших осадков за период времени, мм. При наведении курсора мыши на число - период времени, за который выпало указанное количество осадков.
R24 - Количество осадков - Количество выпавших осадков за 24 часа, мм.
S - Снежный покров - Высота снежного покрова, см. При наведении курсора мыши на число - состояние снежного покрова и степень покрытия местности в баллах.